weather.gov     
National Weather Service

Terminal Aerodrome Forecast
NWS Homepage
This page is being discontinued on March 12, 2014.
The same data is available at this site. Please update your bookmarks.
Thank you, and we apologize for the inconvenience.
Please send an email to SR-SRH.Webmaster@noaa.gov with any concerns.


Current Version
Previous Version:    01  02  03  04  05  06  07  08  09  10  11  12  13  14  15  16  17  18  19  20  21  22  23  24  25  26  27  28  29  30  
[Printable]
748
FTUS44 KSHV 021100
TAFLFK
TAF
KLFK 021126Z 0212/0312 15005KT 5SM BR OVC003
      TEMPO 0212/0213 1SM BR VV002
     FM021400 16007KT P6SM BKN008
     FM021500 17008KT P6SM BKN015
     FM021600 17009KT P6SM VCTS SCT035CB SCT045
     FM030000 16007KT P6SM SCT060
     FM030700 15004KT P6SM BKN008=


U.S. Dept. of Commerce
NOAA National Weather Service
1325 East West Highway
Silver Spring, MD 20910
E-mail: w-nws.webmaster@noaa.gov
Page last modified: May 16, 2007
NATIONAL WEATHER SERVICE: for Safety, for Work, for Fun - FOR LIFE